CW9143 Weather Reports


time (UTC)temp
C
wind
direction
speed
KPH
gust
KPH
rain 1hr
cm
rain 24hr
cm
rain mn
cm
humidity
%
barometer
mb
20260506201537 27 344 4.8 16.1 0.00 0.00 0.00 23 1015.6
20260506200035 27 247 1.6 16.1 0.00 0.00 0.00 25 1015.8
20260506194536 26 272 4.8 12.9 0.00 0.00 0.00 26 1016.0
20260506193037 25 29 8.0 19.3 0.00 0.00 0.00 27 1016.4
20260506191537 24 306 9.7 24.1 0.00 0.00 0.00 28 1016.5
20260506190033 23 256 12.9 20.9 0.00 0.00 0.00 29 1016.7
20260506184537 23 347 6.4 19.3 0.00 0.00 0.00 29 1017.0
20260506183034 23 323 12.9 20.9 0.00 0.00 0.00 30 1017.1
20260506181535 22 253 3.2 19.3 0.00 0.00 0.00 31 1017.2
20260506180042 22 305 9.7 20.9 0.00 0.00 0.00 30 1017.4
20260506174537 22 338 4.8 20.9 0.00 0.00 0.00 31 1017.4
20260506173037 22 201 4.8 11.3 0.00 0.00 0.00 31 1017.3
20260506171550 21 189 3.2 11.3 0.00 0.00 0.00 33 1017.4
20260506170039 20 70 0.0 11.3 0.00 0.00 0.00 35 1017.3
20260506164534 19 0 0.0 12.9 0.00 0.00 0.00 36 1017.4
20260506163042 20 230 1.6 8.0 0.00 0.00 0.00 36 1017.4
20260506161537 19 144 3.2 8.0 0.00 0.00 0.00 37 1017.3
20260506160034 18 232 0.0 8.0 0.00 0.00 0.00 38 1017.3
20260506154542 18 0 0.0 4.8 0.00 0.00 0.00 39 1017.3
20260506153033 17 236 1.6 8.0 0.00 0.00 0.00 40 1017.4
20260506151536 17 239 1.6 4.8 0.00 0.00 0.00 40 1017.2
20260506150034 16 0 0.0 1.6 0.00 0.00 0.00 41 1017.3
20260506144541 15 0 0.0 1.6 0.00 0.00 0.00 43 1017.3
20260506143036 14 0 0.0 1.6 0.00 0.00 0.00 44 1017.1
20260506141535 12 0 0.0 0.0 0.00 0.00 0.00 44 1016.9
20260506140032 11 0 0.0 0.0 0.00 0.00 0.00 44 1016.9
20260506134537 9 87 0.0 1.6 0.00 0.00 0.00 47 1016.9
20260506133045 8 0 0.0 1.6 0.00 0.00 0.00 47 1016.4
20260506131538 8 0 0.0 0.0 0.00 0.00 0.00 46 1016.2
20260506130037 8 165 0.0 1.6 0.00 0.00 0.00 53 1015.9
20260506124534 9 0 0.0 1.6 0.00 0.00 0.00 54 1015.8
20260506123034 9 0 0.0 1.6 0.00 0.00 0.00 51 1015.6
20260506121532 8 0 0.0 0.0 0.00 0.00 0.00 50 1015.5
20260506120039 8 0 0.0 0.0 0.00 0.00 0.00 49 1015.5
20260506114537 10 0 0.0 0.0 0.00 0.00 0.00 49 1015.4
20260506113046 10 0 0.0 1.6 0.00 0.00 0.00 47 1015.4
20260506111535 10 0 0.0 1.6 0.00 0.00 0.00 48 1015.1
20260506110039 11 0 0.0 1.6 0.00 0.00 0.00 44 1015.0
20260506104545 11 0 0.0 0.0 0.00 0.00 0.00 45 1014.6
20260506103041 11 249 1.6 1.6 0.00 0.00 0.00 43 1014.5
20260506101546 11 0 0.0 3.2 0.00 0.00 0.00 41 1014.3
20260506100033 11 234 0.0 4.8 0.00 0.00 0.00 40 1014.4
20260506094534 10 222 3.2 6.4 0.00 0.00 0.00 42 1014.1
20260506093034 10 0 0.0 1.6 0.00 0.00 0.00 41 1014.0
20260506091534 9 340 0.0 3.2 0.00 0.00 0.00 42 1013.9
20260506090036 10 76 1.6 6.4 0.00 0.00 0.00 40 1013.8
20260506084541 10 0 0.0 3.2 0.00 0.00 0.00 39 1013.7
20260506083037 11 0 0.0 1.6 0.00 0.00 0.00 39 1013.5
20260506081533 12 0 0.0 3.2 0.00 0.00 0.00 38 1013.5
20260506073038 12 0 0.0 1.6 0.00 0.00 0.00 42 1013.6
20260506071538 12 0 0.0 1.6 0.00 0.00 0.00 41 1013.5
20260506061534 13 0 0.0 0.0 0.00 0.00 0.00 40 1012.8
20260506044539 14 0 0.0 1.6 0.00 0.00 0.00 32 1012.4
20260506043037 15 42 0.0 4.8 0.00 0.00 0.00 34 1012.2
20260506041539 15 0 0.0 1.6 0.00 0.00 0.00 34 1012.0
20260506040040 15 0 0.0 0.0 0.00 0.00 0.00 33 1011.6
20260506034532 16 0 0.0 0.0 0.00 0.00 0.00 31 1011.4
20260506033034 17 0 0.0 0.0 0.00 0.00 0.00 30 1011.2
20260506031534 18 185 0.0 6.4 0.00 0.00 0.00 29 1010.9
20260506030037 18 200 3.2 6.4 0.00 0.00 0.00 29 1010.7
20260506024537 19 232 3.2 8.0 0.00 0.00 0.00 29 1010.4
20260506023048 20 237 6.4 16.1 0.00 0.00 0.00 28 1010.3
20260506021536 21 216 4.8 11.3 0.00 0.00 0.00 27 1010.2
20260506020037 21 217 6.4 14.5 0.00 0.00 0.00 25 1010.0
20260506014539 22 234 3.2 11.3 0.00 0.00 0.00 26 1009.9
20260506013037 22 241 4.8 12.9 0.00 0.00 0.00 26 1009.9
20260506011536 22 233 6.4 12.9 0.00 0.00 0.00 26 1009.8
20260506010045 22 233 8.0 17.7 0.00 0.00 0.00 27 1009.7
20260506004537 22 227 6.4 19.3 0.00 0.00 0.00 27 1009.7
20260506003037 22 281 6.4 17.7 0.00 0.00 0.00 27 1009.6
20260506001544 22 231 3.2 14.5 0.00 0.00 0.00 28 1009.6
20260506000037 22 173 9.7 19.3 0.00 0.00 0.00 28 1009.4
20260505234556 21 248 4.8 19.3 0.00 0.00 0.00 29 1009.4
20260505233037 22 268 9.7 19.3 0.00 0.00 0.00 29 1009.4
20260505231535 22 155 6.4 19.3 0.00 0.00 0.00 29 1009.5
20260505230032 22 168 1.6 11.3 0.00 0.00 0.00 29 1009.7
20260505224535 22 246 4.8 12.9 0.00 0.00 0.00 29 1009.8
20260505223035 21 303 3.2 8.0 0.00 0.00 0.00 29 1010.0
20260505221535 21 171 8.0 20.9 0.00 0.00 0.00 30 1010.0
20260505220033 21 139 8.0 16.1 0.00 0.00 0.00 31 1010.3
20260505214558 21 250 9.7 17.7 0.00 0.00 0.00 30 1010.4
20260505213036 22 175 8.0 17.7 0.00 0.00 0.00 30 1010.7
20260505211532 21 244 6.4 17.7 0.00 0.00 0.00 31 1010.7
20260505210031 21 171 4.8 14.5 0.00 0.00 0.00 32 1010.8
20260505204537 21 239 3.2 12.9 0.00 0.00 0.00 31 1010.8
20260505203038 20 16 11.3 20.9 0.00 0.00 0.00 32 1010.8